STARLINK-11492 [DTC] (62224 NORAD) Tracking and Keplerian Element Data

This shows tracking and keplerian element data for the satellite.

Feedback or suggestion? Click here.




ElementValue
Catalog62224
NameSTARLINK-11492 [DTC]
Epoch Orbit1076
Epoch Day35.02659236
Epoch Year2025
RAAN266.7877
Inclination53.1578
Eccentricity0.0001515
Argument of Perigee78.0179
Mean Anonmoly282.1009
Mean Motion15.69698976
Decay Rate7.62E-06
L11 62224U 24231G 25035.02659236 .00000762 00000+0 11160-4 0 9993
L22 62224 53.1578 266.7877 0001515 78.0179 282.1009 15.69698976 10766



Live tracking and technical data element details for STARLINK-11492 [DTC] (NORAD 62224). STARLINK-11492 [DTC] can be tracked NOW for your location showing map with azimuth and elevation plus other details from your city location.







IsCatalogInMostPopularTable: catalog: 62224, numindb: 14
Update: records affected: 1



GetName: 62224 STARLINK-11492 [DTC]

Hit Count: updated at: Mon, 19 May 2025 03:08:31 GMT